YD2CLX-17 Weather Reports


time (UTC)temp
C
wind
direction
speed
KPH
gust
KPH
rain 1hr
cm
rain 24hr
cm
rain mn
cm
humidity
%
barometer
mb
20260504223055 27 36 3.2 3.2 0.00 0.00 0.00 90 1010.0
20260504221554 27 36 3.2 3.2 0.00 0.00 0.00 90 1010.0
20260504220057 27 36 3.2 3.2 0.00 0.00 0.00 91 1010.0
20260504214555 28 36 3.2 3.2 0.00 0.00 0.00 91 1010.0
20260504213055 27 36 3.2 3.2 0.00 0.00 0.00 92 1010.0
20260504211554 27 31 1.6 1.6 0.00 0.00 0.00 90 1010.0
20260504210056 28 31 1.6 1.6 0.00 0.00 0.00 92 1010.0
20260504204554 28 31 1.6 1.6 0.00 0.00 0.00 92 1010.0
20260504203055 28 31 1.6 1.6 0.00 0.00 0.00 92 1010.0
20260504201555 28 24 3.2 3.2 0.00 0.00 0.00 91 1010.0
20260504200057 28 24 3.2 3.2 0.00 0.00 0.00 92 1010.0
20260504194555 28 24 3.2 3.2 0.00 0.00 0.00 92 1010.0
20260504193055 28 24 3.2 3.2 0.00 0.00 0.00 93 1010.0
20260504191554 28 16 3.2 3.2 0.00 0.00 0.00 91 1010.0
20260504190056 28 16 3.2 3.2 0.00 0.00 0.00 93 1010.0
20260504184555 28 16 3.2 3.2 0.00 0.00 0.00 93 1010.0
20260504183055 28 16 3.2 3.2 0.00 0.00 0.00 94 1010.0
20260504181555 28 352 3.2 3.2 0.00 0.00 0.00 93 1011.0
20260504180059 28 352 3.2 3.2 0.00 0.00 0.00 93 1011.0
20260504174554 28 334 4.8 3.2 0.00 0.00 0.00 93 1011.0
20260504173055 28 334 4.8 3.2 0.00 0.00 0.00 93 1011.0
20260504171555 28 328 3.2 3.2 0.00 0.00 0.00 91 1011.0
20260504081511 29 190 4.8 4.8 0.00 0.00 0.00 80 1009.0
20260504050012 29 190 4.8 4.8 0.00 0.00 0.00 83 1011.0
20260504044511 29 190 4.8 4.8 0.00 0.00 0.00 83 1011.0
20260504043011 29 190 4.8 4.8 0.00 0.00 0.00 85 1011.0
20260504041511 29 190 4.8 4.8 0.00 0.00 0.00 85 1012.0
20260504040011 29 190 4.8 4.8 0.00 0.00 0.00 85 1012.0
20260504034511 29 190 4.8 4.8 0.00 0.00 0.00 85 1012.0
20260504033011 29 190 4.8 4.8 0.00 0.00 0.00 85 1012.0
20260504031512 29 190 4.8 4.8 0.00 0.00 0.00 85 1013.0
20260504030011 29 190 4.8 4.8 0.00 0.00 0.00 85 1013.0
20260504024511 29 190 4.8 4.8 0.00 0.00 0.00 85 1013.0
20260504023012 29 190 4.8 4.8 0.00 0.00 0.00 85 1013.0
20260504021511 29 190 4.8 4.8 0.00 0.00 0.00 85 1013.0
20260504020011 29 190 4.8 4.8 0.00 0.00 0.00 85 1013.0
20260504014511 29 190 4.8 4.8 0.00 0.00 0.00 85 1013.0
20260504013056 29 190 4.8 4.8 0.03 0.00 0.00 85 1013.0
20260504011557 29 191 4.8 3.2 0.00 0.00 0.00 87 1012.0
20260504010057 29 191 4.8 3.2 0.00 0.00 0.00 87 1013.0
20260504004556 28 191 4.8 3.2 0.00 0.00 0.00 88 1012.0
20260504003057 28 119 1.6 3.2 0.00 0.00 0.00 90 1012.0
20260504001555 28 123 1.6 3.2 0.00 0.00 0.00 90 1012.0
20260504000059 28 123 1.6 3.2 0.00 0.00 0.00 90 1012.0
20260503234556 28 115 1.6 3.2 0.00 0.00 0.00 91 1012.0
20260503233057 28 123 1.6 3.2 0.00 0.00 0.00 92 1012.0
20260503231556 27 73 3.2 4.8 0.00 0.00 0.00 93 1011.0
20260503230057 27 73 3.2 4.8 0.00 0.00 0.00 94 1011.0
20260503224556 27 73 3.2 4.8 0.00 0.00 0.00 95 1011.0